Regional Weather Roundup
Issued by NWS

Home | Current Version | Previous Version | Text Only | Print | Product List | Glossary Off
Versions: 1 2 3 4 5 6 7 8 9 10 11 12 13 14 15 16 17 18 19 20 21 22 23 24 25 26 27 28 29 30 31 32 33 34 35 36 37 38 39 40 41 42 43 44 45 46 47 48 49 50

000
ASUS44 KMEG 221910
RWRTN
TENNESSEE HOURLY STATE WEATHER ROUNDUP
NATIONAL WEATHER SERVICE MEMPHIS TN
200 PM CDT THU JUN 22 2017

TNZ002-004-019-021-049-052-054-088>092-222000-
WEST TENNESSEE

CITY           SKY/WX    TMP DP  RH WIND       PRES   REMARKS
MEMPHIS INTL   PTSUNNY   89  75  63 S14       29.78F HX  99
NWS MEMPHIS      N/A     87 N/A N/A MISG        N/A
JACKSON        MOSUNNY   86  76  71 S10G20    29.84F HX  96
COVINGTON      PTSUNNY   84  77  79 SE10      29.81F HX  94
UNION CITY     CLOUDY    79  75  89 S12       29.83F
BOLIVAR        MOSUNNY   88  75  66 SE9G20    29.82F HX  97
PARIS          CLOUDY    77  75  94 SE9       29.87S
HUNTINGDON     CLOUDY    79  75  89 S9G20     29.86F
LEXINGTON      CLOUDY    81  75  83 S10G17    29.86F
SELMER         PTSUNNY   84  73  70 S13G23    29.85F HX  91
SAVANNAH       CLOUDY    81  77  89 S10G17    29.86F HAZE
$$

TNZ008-025-027-028-033-062-065-066-222000-
NORTH MIDDLE TENNESSEE

CITY           SKY/WX    TMP DP  RH WIND       PRES   REMARKS
NASHVILLE      DRIZZLE   77  74  90 SE12      29.93F FOG
PORTLAND       PTSUNNY   73  72  94 SE10G16   29.93F FOG
CLARKSVILLE    RAIN      74  72  93 SE8       29.90F VSB 1
SMYRNA         LGT RAIN  75  73  93 SE9       29.94F
COOKEVILLE     MOSUNNY   73  72  94 VRB8      29.99F FOG
GALLATIN       CLOUDY    73  72  94 SE8G15    29.97F FOG
CROSSVILLE     LGT RAIN  70  68  93 SE9       30.06F FOG
$$

TNZ061-075-076-078-094-096-097-222000-
SOUTH MIDDLE TENNESSEE

CITY           SKY/WX    TMP DP  RH WIND       PRES   REMARKS
FAYETTEVILLE   CLOUDY    77  75  94 SE9G15    29.95F
TULLAHOMA      CLOUDY    73  72  94 SE12      29.98F
WINCHESTER     CLOUDY    73  73 100 SE7         N/A
MCMINNVILLE    CLOUDY    75  75 100 VRB5      29.99F
COLUMBIA       CLOUDY    81  79  94 S6G14     29.89F
SHELBYVILLE    CLOUDY    75  73  94 S10       29.95F
$$

TNZ017-018-042-046-047-222000-
NORTHEAST TENNESSEE

CITY           SKY/WX    TMP DP  RH WIND       PRES   REMARKS
TRI CITIES     LGT RAIN  72  70  93 VRB5      30.14F
ELIZABETHTON   CLOUDY    72  70  94 E6        30.14F
$$

TNZ012-013-036-069-073-074-222000-
CENTRAL EAST TENNESSEE

CITY           SKY/WX    TMP DP  RH WIND       PRES   REMARKS
KNOXVILLE      LGT RAIN  76  71  85 VRB3      30.06F
OAK RIDGE      LGT RAIN  76  71  85 VRB3      30.08S
DOWNTOWN KNOXV SUNNY     75  72  88 E6        30.06F
GATLINBURG     MOSUNNY   75  70  83 E5        30.07F
MORRISTOWN     MOSUNNY   75  70  83 E8        30.09F
JACKSBORO      PTSUNNY   75  72  88 CALM      30.11S FOG
$$

TNZ083-085-099-222000-
SOUTHEAST TENNESSEE

CITY           SKY/WX    TMP DP  RH WIND       PRES   REMARKS
CHATTANOOGA    LGT RAIN  75  73  93 SE7       30.02F FOG
$$

SKY/WX REPORTED AS FAIR MEANS FEW OR NO CLOUDS BELOW
12 THOUSAND FEET.





USA.gov is the U.S. government's official web portal to all federal, state and local government web resources and services.